Location: Newark
(13.6797°N, 8.5297°E)
Time: 01:10:37
(UTC+00:00)

Courier 1B Rocket - Pass Details

Date: 19 January 2020
Orbit: 920 x 1202 km, 28.2° (Epoch: 19 February)

Event Time Altitude Azimuth Distance (km) Brightness Sun altitude
Rises 18:50:19 0° 300° (WNW) 3,544 8.6 -21.7°
Reaches altitude 10° 18:52:55 10° 303° (WNW) 2,606 7.8 -22.3°
Maximum altitude 18:59:07 66° 24° (NNE) 1,016 4.9 -23.8°
Enters shadow 19:00:26 53° 78° (ENE) 1,143 4.9 -24.1°
Drops below altitude 10° 19:05:35 10° 107° (ESE) 2,715 - -25.3°
Sets 19:08:20 0° 109° (ESE) 3,703 - -25.9°
